Weather History for KMWM - March, 2012

Change the Weather History Date:

Tuesday, March 20, 2012

  Actual Average Record
Temperature  
Mean Temperature 54 °F -  
Max Temperature 57 °F 42 °F 68 °F (2015)
Min Temperature 50 °F 24 °F -3 °F (1951)
Degree Days  
Heating Degree Days 12    
Growing Degree Days 4 (Base 50)    
Moisture  
Dew Point 51 °F    
Average Humidity 89    
Maximum Humidity 100    
Minimum Humidity 77    
Precipitation  
Precipitation 0.07 in - - ()
Sea Level Pressure  
Sea Level Pressure 29.81 in    
Wind  
Wind Speed 8 mph (South)    
Max Wind Speed 14 mph    
Max Gust Speed 16 mph    
Visibility 9 miles    
Events Rain    
Averages and records for this station are not official NWS values.
T = Trace of Precipitation, MM = Missing Value Source: NWS Daily Summary

Daily Weather History Graph

Daily Weather History Graph

Search for Another Location

Airport or City:

Trip Planner

Search our weather history database for the weather conditions in past years. The results will help you decide how hot, cold, wet, or windy it might be!

Date:

Astronomy

Mar. 20, 2012 Rise Set
Actual Time 7:22 AM CDT 7:33 PM CDT
Civil Twilight 6:53 AM CDT 8:02 PM CDT
Nautical Twilight 6:20 AM CDT 8:36 PM CDT
Astronomical Twilight 5:45 AM CDT 9:10 PM CDT
Moon 6:08 AM CDT (3/20) 6:00 PM CDT (3/20)
Length of Visible Light 13h 08m
Length of Day
12h 10m
Waning Crescent, 4% of the Moon is Illuminated
Mar 20
Waning Crescent
Mar 22
New
Mar 30
First Quarter
Apr 6
Full
Apr 13
Last Quarter

Hourly Weather History & Observations

Time (CDT) Temp. Dew Point Humidity Pressure Visibility Wind Dir Wind Speed Gust Speed Precip Events Conditions
12:12 AM 55.4 °F 53.6 °F 94% 29.67 in 10.0 mi South 10.4 mph - N/A   Mostly Cloudy
12:33 AM 55.4 °F 51.8 °F 88% 29.68 in 10.0 mi South 10.4 mph - N/A   Mostly Cloudy
12:52 AM 55.4 °F 51.8 °F 88% 29.68 in 10.0 mi SSW 11.5 mph - N/A   Scattered Clouds
1:12 AM 55.4 °F 51.8 °F 88% 29.69 in 10.0 mi South 9.2 mph - N/A   Mostly Cloudy
1:33 AM 55.4 °F 51.8 °F 88% 29.70 in 10.0 mi South 5.8 mph - N/A   Overcast
1:52 AM 55.4 °F 51.8 °F 88% 29.70 in 10.0 mi South 4.6 mph - N/A   Overcast
2:12 AM 55.4 °F 51.8 °F 88% 29.70 in 10.0 mi South 3.5 mph - N/A   Overcast
2:33 AM 55.4 °F 51.8 °F 88% 29.70 in 10.0 mi SSE 5.8 mph - N/A   Overcast
2:52 AM 55.4 °F 51.8 °F 88% 29.71 in 10.0 mi SSE 6.9 mph - N/A   Overcast
3:12 AM 55.4 °F 51.8 °F 88% 29.71 in 10.0 mi South 6.9 mph - N/A   Mostly Cloudy
3:33 AM 55.4 °F 51.8 °F 88% 29.72 in 10.0 mi SSE 8.1 mph - N/A   Scattered Clouds
3:52 AM 55.4 °F 51.8 °F 88% 29.73 in 10.0 mi South 6.9 mph - N/A   Mostly Cloudy
4:12 AM 53.6 °F 51.8 °F 94% 29.73 in 10.0 mi South 5.8 mph - N/A   Mostly Cloudy
4:33 AM 53.6 °F 51.8 °F 94% 29.72 in 10.0 mi South 5.8 mph - N/A   Mostly Cloudy
4:52 AM 53.6 °F 51.8 °F 94% 29.72 in 10.0 mi SSE 5.8 mph - N/A   Clear
5:12 AM 51.8 °F 51.8 °F 100% 29.71 in 7.0 mi SSE 6.9 mph - N/A   Clear
5:33 AM 51.8 °F 51.8 °F 100% 29.73 in 5.0 mi SSE 6.9 mph - N/A   Scattered Clouds
5:52 AM 51.8 °F 51.8 °F 100% 29.73 in 7.0 mi SSE 9.2 mph - N/A   Mostly Cloudy
6:12 AM 51.8 °F 51.8 °F 100% 29.75 in 7.0 mi South 4.6 mph - N/A   Scattered Clouds
6:32 AM 51.8 °F 51.8 °F 100% 29.76 in 7.0 mi South 5.8 mph - N/A   Scattered Clouds
6:52 AM 51.8 °F 50.0 °F 94% 29.77 in 7.0 mi South 8.1 mph - N/A   Clear
7:13 AM 51.8 °F 50.0 °F 94% 29.77 in 7.0 mi South 4.6 mph - N/A   Scattered Clouds
7:33 AM 51.8 °F 50.0 °F 94% 29.78 in 7.0 mi South 5.8 mph - N/A   Mostly Cloudy
7:52 AM 51.8 °F 50.0 °F 94% 29.78 in 7.0 mi South 4.6 mph - N/A   Scattered Clouds
8:13 AM 51.8 °F 51.8 °F 100% 29.81 in 7.0 mi SSW 8.1 mph - N/A   Scattered Clouds
8:32 AM 51.8 °F 51.8 °F 100% 29.80 in 7.0 mi South 9.2 mph - N/A   Scattered Clouds
8:52 AM 53.6 °F 51.8 °F 94% 29.81 in 7.0 mi SSW 6.9 mph - N/A   Scattered Clouds
9:13 AM 53.6 °F 51.8 °F 94% 29.82 in 7.0 mi SSW 8.1 mph - N/A   Mostly Cloudy
9:32 AM 53.6 °F 51.8 °F 94% 29.83 in 10.0 mi SSW 9.2 mph - N/A   Overcast
9:52 AM 53.6 °F 51.8 °F 94% 29.83 in 10.0 mi SSW 10.4 mph - N/A   Overcast
10:13 AM 55.4 °F 51.8 °F 88% 29.84 in 10.0 mi South 10.4 mph - N/A   Overcast
10:32 AM 55.4 °F 51.8 °F 88% 29.86 in 10.0 mi SSW 11.5 mph - N/A   Overcast
10:52 AM 55.4 °F 51.8 °F 88% 29.86 in 10.0 mi SSW 9.2 mph - N/A   Overcast
11:13 AM 57.2 °F 51.8 °F 82% 29.85 in 10.0 mi SSW 10.4 mph - N/A   Overcast
11:32 AM 57.2 °F 51.8 °F 82% 29.86 in 10.0 mi SSW 13.8 mph - N/A   Overcast
11:52 AM 57.2 °F 51.8 °F 82% 29.86 in 10.0 mi SSW 10.4 mph - N/A   Overcast
12:13 PM 57.2 °F 51.8 °F 82% 29.85 in 10.0 mi SSW 9.2 mph - N/A   Overcast
12:32 PM 57.2 °F 50.0 °F 77% 29.86 in 10.0 mi SSW 9.2 mph - N/A   Overcast
12:52 PM 57.2 °F 50.0 °F 77% 29.86 in 10.0 mi SW 8.1 mph - N/A   Overcast
1:13 PM 57.2 °F 50.0 °F 77% 29.87 in 10.0 mi SSW 4.6 mph - N/A   Overcast
1:52 PM 57.2 °F 51.8 °F 82% 29.88 in 7.0 mi South 4.6 mph - N/A Rain Rain
2:13 PM 57.2 °F 51.8 °F 82% 29.88 in 7.0 mi South 3.5 mph - N/A Rain Rain
2:32 PM 57.2 °F 53.6 °F 88% 29.87 in 7.0 mi SSE 3.5 mph - N/A Rain Light Rain
3:13 PM 55.4 °F 51.8 °F 88% 29.87 in 4.0 mi North 9.2 mph - 0.06 in Rain Heavy Rain
3:32 PM 55.4 °F 53.6 °F 94% 29.87 in 5.0 mi North 5.8 mph - 0.07 in Rain Light Rain
3:52 PM 55.4 °F 51.8 °F 88% 29.87 in 7.0 mi NNW 6.9 mph - 0.07 in Rain Light Rain
4:32 PM 55.4 °F 51.8 °F 88% 29.88 in 10.0 mi NNW 9.2 mph - N/A Rain Light Rain
5:12 PM 53.6 °F 50.0 °F 88% 29.89 in 10.0 mi North 10.4 mph - N/A   Overcast
5:32 PM 53.6 °F 50.0 °F 88% 29.89 in 10.0 mi North 10.4 mph - N/A Rain Light Rain
5:53 PM 53.6 °F 50.0 °F 88% 29.89 in 10.0 mi North 11.5 mph - N/A Rain Light Rain
6:13 PM 53.6 °F 48.2 °F 82% 29.90 in 10.0 mi North 11.5 mph - N/A Rain Light Rain
6:32 PM 53.6 °F 48.2 °F 82% 29.91 in 10.0 mi North 11.5 mph - N/A Rain Light Rain
6:53 PM 51.8 °F 48.2 °F 88% 29.91 in 10.0 mi North 12.7 mph - N/A Rain Light Rain
7:13 PM 51.8 °F 48.2 °F 88% 29.91 in 10.0 mi North 11.5 mph 16.1 mph N/A   Overcast
7:32 PM 51.8 °F 48.2 °F 88% 29.90 in 10.0 mi North 9.2 mph - N/A   Overcast
8:12 PM 50.0 °F 46.4 °F 87% 29.90 in 10.0 mi North 10.4 mph - N/A   Overcast
8:32 PM 50.0 °F 46.4 °F 87% 29.90 in 10.0 mi NNE 8.1 mph - N/A   Overcast
8:53 PM 50.0 °F 46.4 °F 87% 29.91 in 10.0 mi NNE 5.8 mph - N/A Rain Light Rain
9:12 PM 50.0 °F 46.4 °F 87% 29.90 in 7.0 mi NNE 6.9 mph - N/A   Overcast
9:32 PM 50.0 °F 46.4 °F 87% 29.90 in 7.0 mi NNE 8.1 mph - N/A   Overcast
9:53 PM 50.0 °F 46.4 °F 87% 29.89 in 7.0 mi North 6.9 mph - N/A Rain Light Rain
10:33 PM 50.0 °F 48.2 °F 94% 29.90 in 5.0 mi NNE 4.6 mph - N/A   Light Drizzle
10:53 PM 50.0 °F 48.2 °F 94% 29.90 in 5.0 mi ENE 4.6 mph - N/A Rain Rain
11:12 PM 50.0 °F 48.2 °F 94% 29.90 in 2.5 mi NE 3.5 mph - N/A Rain Heavy Rain
11:33 PM 50.0 °F 48.2 °F 94% 29.90 in 2.5 mi NNE 4.6 mph - N/A Rain Heavy Rain
11:53 PM 50.0 °F 50.0 °F 100% 29.90 in 2.5 mi NNE 5.8 mph - N/A Rain Rain